Blytheville Muni Airport, AR

7:21 AM CST on November 23, 2017 (GMT -0600)
Blytheville Municipal

Weather History for KHKA - January, 2014

Change the Weather History Date:

Monday, January 6, 2014

  Actual Average Record
Temperature  
Mean Temperature 10 °F -  
Max Temperature 14 °F 44 °F 74 °F (1946)
Min Temperature 7 °F 29 °F 3 °F (1942)
Degree Days  
Heating Degree Days 54    
Moisture  
Dew Point -3 °F    
Average Humidity 55    
Maximum Humidity 64    
Minimum Humidity 46    
Precipitation  
Precipitation 0.00 in - - ()
Sea Level Pressure  
Sea Level Pressure 30.55 in    
Wind  
Wind Speed 19 mph (NW)    
Max Wind Speed 25 mph    
Max Gust Speed 32 mph    
Visibility 10 miles    
Events      
Averages and records for this station are not official NWS values.
T = Trace of Precipitation, MM = Missing Value Source: NWS Daily Summary

Daily Weather History Graph

Daily Weather History Graph

Search for Another Location

Airport or City:

Trip Planner

Search our weather history database for the weather conditions in past years. The results will help you decide how hot, cold, wet, or windy it might be!

Date:

Astronomy

Jan. 06, 2014 Rise Set
Actual Time 7:10 AM CST 5:00 PM CST
Civil Twilight 6:41 AM CST 5:28 PM CST
Nautical Twilight 6:10 AM CST 6:00 PM CST
Astronomical Twilight 5:39 AM CST 6:31 PM CST
Moon 10:37 AM CST (1/6) 11:20 PM CST (1/6)
Length of Visible Light 10h 46m
Length of Day
9h 50m
Waxing Crescent, 35% of the Moon is Illuminated
Jan 6
Waxing Crescent
Jan 7
First Quarter
Jan 15
Full
Jan 23
Last Quarter
Jan 30
New

Hourly Weather History & Observations

Time (CST) Temp. Windchill Dew Point Humidity Pressure Visibility Wind Dir Wind Speed Gust Speed Precip Events Conditions
12:53 AM 14.0 °F -4.3 °F 3.0 °F 62% 30.38 in 10.0 mi NNW 21.9 mph 32.2 mph N/A   Clear
1:53 AM 12.9 °F -6.9 °F 1.9 °F 62% 30.42 in 10.0 mi NNW 25.3 mph 32.2 mph N/A   Clear
2:53 AM 12.0 °F -7.3 °F -0.0 °F 59% 30.45 in 10.0 mi NNW 23.0 mph - N/A   Partly Cloudy
3:53 AM 10.0 °F -9.1 °F -0.9 °F 61% 30.48 in 10.0 mi NNW 20.7 mph - N/A   Scattered Clouds
4:53 AM 9.0 °F -10.0 °F -0.9 °F 64% 30.48 in 10.0 mi NNW 19.6 mph - N/A   Clear
5:53 AM 8.1 °F -11.7 °F -5.1 °F 55% 30.51 in 10.0 mi NNW 20.7 mph - N/A   Clear
6:53 AM 7.0 °F -13.1 °F -6.0 °F 55% 30.53 in 10.0 mi NNW 20.7 mph 26.5 mph N/A   Clear
7:53 AM 8.1 °F -10.2 °F -4.0 °F 58% 30.56 in 10.0 mi NNW 17.3 mph - N/A   Clear
8:53 AM 10.0 °F -7.6 °F -2.9 °F 56% 30.58 in 10.0 mi NNW 17.3 mph - N/A   Clear
9:53 AM 10.0 °F -7.1 °F -2.9 °F 56% 30.59 in 10.0 mi NW 16.1 mph - N/A   Scattered Clouds
10:53 AM 10.0 °F -8.1 °F -5.1 °F 51% 30.58 in 10.0 mi WNW 18.4 mph 26.5 mph N/A   Partly Cloudy
11:53 AM 10.9 °F -5.4 °F -2.0 °F 56% 30.57 in 10.0 mi NW 15.0 mph 24.2 mph N/A   Partly Cloudy
12:53 PM 12.0 °F -4.5 °F -2.9 °F 51% 30.56 in 10.0 mi NW 16.1 mph 24.2 mph N/A   Clear
1:53 PM 12.9 °F -2.8 °F -2.9 °F 49% 30.56 in 10.0 mi WNW 15.0 mph - N/A   Partly Cloudy
2:53 PM 12.0 °F -2.0 °F -5.1 °F 46% 30.56 in 10.0 mi WNW 11.5 mph 25.3 mph N/A   Clear
3:53 PM 12.0 °F -2.7 °F -4.0 °F 49% 30.57 in 10.0 mi West 12.7 mph - N/A   Clear
4:53 PM 10.9 °F -4.7 °F -4.0 °F 51% 30.56 in 10.0 mi WNW 13.8 mph 19.6 mph N/A   Clear
5:53 PM 10.0 °F -5.2 °F -4.0 °F 53% 30.58 in 10.0 mi West 12.7 mph - N/A   Clear
6:53 PM 9.0 °F -5.1 °F -2.9 °F 59% 30.58 in 10.0 mi WNW 10.4 mph - N/A   Clear
7:53 PM 10.0 °F -5.2 °F -4.0 °F 53% 30.60 in 10.0 mi NW 12.7 mph - N/A   Clear
8:53 PM 9.0 °F -6.6 °F -2.0 °F 61% 30.62 in 10.0 mi NW 12.7 mph - N/A   Clear
9:53 PM 9.0 °F -7.3 °F -6.0 °F 51% 30.64 in 10.0 mi NW 13.8 mph - N/A   Clear
10:53 PM 8.1 °F -10.2 °F -7.1 °F 50% 30.65 in 10.0 mi NW 17.3 mph - N/A   Clear
11:53 PM 7.0 °F -9.8 °F -6.0 °F 55% 30.64 in 10.0 mi NW 13.8 mph - N/A   Clear